Location: Unspecified
(48.7670°N, 0.0000°E)
Time: 16:53:30
(UTC+00:00)

Vanguard 2 Rocket - Pass Details

Date: 22 June 2019
Orbit: 554 x 3326 km, 32.9° (Epoch: 18 July)

Event Time Altitude Azimuth Distance (km) Brightness Sun altitude
Rises 22:39:52 0° 238° (WSW) 4,274 10.2 -15.5°
Reaches altitude 10° 22:42:34 10° 229° (SW) 3,615 9.7 -15.6°
Maximum altitude 22:51:20 37° 167° (SSE) 2,938 8.9 -16.1°
Drops below altitude 10° 23:05:13 10° 109° (ESE) 5,710 10.6 -16.7°
Sets 23:10:49 0° 103° (ESE) 7,028 11.2 -16.9°
